Home   Weather   Brest   Past weeks

Flag for France Past Weather in Brest, Brittany, France — Yesterday and Last 2 Weeks

Now
52 °F

Partly sunny.


Feels Like: 48 °F
Forecast: 48 / 55 °F
Wind: 10 mph from Northwest

Location: Brest Airport

Current Time: Apr 30, 2017 at 3:17:12 pm

Latest Report: Apr 30, 2017 at 2:30 pm


Visibility: N/A

Pressure: 29.36 "Hg

Humidity: 72%

Dew Point: 43 °F

Location of BrestLocation

Past Weather in Brest — Graph

°F

Brest Temperature Yesterday

Maximum temperature yesterday: 63 °F (at 4:30 pm)
Minimum temperature yesterday: 39 °F (at 2:00 am)
Average temperature yesterday: 50 °F

High & Low Weather Summary for the Past Weeks

 TemperatureHumidityPressure
High66 °F (Apr 23, 3:00 pm)100% (Apr 17, 2:00 am)30.60 "Hg (Apr 17, 2:00 am)
Low32 °F (Apr 19, 7:30 am)34% (Apr 21, 1:30 pm)29.36 "Hg (Apr 30, 10:30 am)
Average49 °F72%30.21 "Hg
* Reported Apr 15 2:00 pm — Apr 30 2:00 pm, Brest, Weather by CustomWeather, © 2017

Note: Actual official high and low records may vary slightly from our data, if they occured in-between our weather recording intervals... More about our weather records

Advertising

Brest Weather History for the Previous 24 Hours

Scroll right to see more
 ConditionsComfort  
Time TempWeatherWind HumidityBarometerVisibility
2:00 pm
Sun, Apr 30
54 °FBroken clouds.10 mph67%29.36 "HgN/A
1:30 pm54 °FBroken clouds.8 mph77%29.36 "HgN/A
1:00 pm54 °FBroken clouds.9 mph82%29.36 "HgN/A
12:30 pm52 °FPartly sunny.12 mph94%29.36 "HgN/A
12:00 pm52 °FBroken clouds.8 mph94%29.36 "HgN/A
11:30 am46 °FLight rain. Broken clouds.9 mph100%29.36 "HgN/A
11:00 am50 °FHeavy rain. Fog.9 mph94%29.39 "Hg2 mi
10:30 am50 °FPartly sunny.9 mph94%29.36 "HgN/A
10:00 am50 °FLight rain. Mostly cloudy.8 mph94%29.39 "HgN/A
9:30 am50 °FLight rain. Partly sunny.12 mph94%29.39 "HgN/A
9:00 am50 °FLight rain. Mostly cloudy.12 mph94%29.39 "Hg5 mi
8:30 am50 °FRain. Fog.13 mph88%29.42 "Hg3 mi
8:00 am50 °FRain. Mostly cloudy.12 mph88%29.42 "Hg5 mi
7:30 am52 °FLight rain. More clouds than sun.12 mph82%29.42 "HgN/A
7:00 am52 °FOvercast.13 mph82%29.42 "HgN/A
6:30 am52 °FCool.12 mph82%29.45 "HgN/A
6:00 am52 °FPartly cloudy.12 mph82%29.45 "HgN/A
5:30 am52 °FPassing clouds.12 mph82%29.47 "HgN/A
5:00 am52 °FLight rain. Overcast.12 mph88%29.47 "HgN/A
4:30 am52 °FMostly cloudy.12 mph82%29.47 "HgN/A
4:00 am54 °FLight rain. Passing clouds.13 mph82%29.50 "HgN/A
3:30 am54 °FPartly cloudy.14 mph77%29.50 "HgN/A
3:00 am54 °FMostly cloudy.14 mph82%29.53 "HgN/A
2:30 am54 °FMostly cloudy.14 mph77%29.53 "HgN/A
2:00 am52 °FMostly cloudy.13 mph77%29.56 "HgN/A
1:30 am52 °FCool.10 mph72%29.56 "HgN/A
1:00 am52 °FCool.14 mph67%29.56 "HgN/A
12:30 am54 °FCool.13 mph58%29.59 "HgN/A
12:00 am54 °FCool.12 mph54%29.59 "HgN/A
11:30 pm
Sat, Apr 29
54 °FCool.14 mph51%29.59 "HgN/A
11:00 pm54 °FCool.15 mph51%29.62 "HgN/A
10:30 pm54 °FCool.15 mph47%29.62 "HgN/A
9:30 pm55 °FRefreshingly cool.17 mph44%29.65 "HgN/A
9:00 pm55 °FRefreshingly cool.16 mph44%29.65 "HgN/A
8:30 pm57 °FRefreshingly cool.20 mph39%29.65 "HgN/A
8:00 pm57 °FRefreshingly cool.17 mph39%29.65 "HgN/A
7:30 pm59 °FRefreshingly cool.17 mph36%29.68 "HgN/A
7:00 pm59 °FRefreshingly cool.22 mph34%29.71 "HgN/A
6:30 pm61 °FRefreshingly cool.20 mph39%29.71 "HgN/A
6:00 pm59 °FRefreshingly cool.18 mph39%29.74 "HgN/A
5:30 pm61 °FRefreshingly cool.22 mph39%29.74 "HgN/A
5:00 pm61 °FRefreshingly cool.20 mph39%29.74 "HgN/A
4:30 pm63 °FMild.20 mph39%29.77 "HgN/A
4:00 pm61 °FRefreshingly cool.20 mph39%29.77 "HgN/A
Weather by CustomWeather, © 2017

See weather overviewHow to use our weather pages